Location: Le Domaine
(47.0333°N, 76.5361°W)
Time: 04:33:03
(UTC-05:00)

Explorer 11/Cluster Stage 4 - Pass Details

Date: 23 November 2019
Orbit: 467 x 1259 km, 28.8° (Epoch: 10 December)

Event Time Altitude Azimuth Distance (km) Brightness Sun altitude
Rises 21:01:25 0° 235° (SW) 3,152 - -46.4°
Reaches altitude 10° 21:05:59 10° 199° (SSW) 2,456 - -47.1°
Maximum altitude 21:07:20 11° 185° (S) 2,466 - -47.3°
Drops below altitude 10° 21:08:44 10° 172° (S) 2,588 - -47.6°
Sets 21:14:10 0° 139° (SE) 3,778 - -48.4°
